Flag for Netherlands Weather past 2 weeks in Eindhoven, Netherlands

Now
41 °F

Quite cool.


Feels Like: 41 °F
Forecast: 49 / 76 °F
Wind: 2 mph from Southwest

Location: Eindhoven Airport

Current Time: Jul 31, 2015 at 5:32:48 AM

Latest Report: Jul 31, 2015 at 4:55 AM


Visibility: N/A

Pressure: 30.12 "Hg

Humidity: 100%

Dew point: 41 °F

Location of EindhovenLocation

Historic Weather in Eindhoven — Graph

°F

Eindhoven temperature yesterday

Maximum temperature yesterday: 64 °F (at 11:25 AM)
Minimum temperature yesterday: 48 °F (at 5:55 AM)
Average temperature yesterday: 56 °F

Past Weeks' High & Low Weather Summary

 TemperatureHumidityPressure
High84 °F (Jul 17, 1:55 PM)100% (Jul 16, 3:25 AM)30.12 "Hg (Jul 16, 3:25 AM)
Low43 °F (Jul 31, 3:55 AM)36% (Jul 24, 2:55 PM)29.45 "Hg (Jul 25, 6:55 AM)
Average64 °F75%29.86 "Hg
* Reported Jul 16 3:25 AM — Jul 31 3:55 AM, Eindhoven, Weather by CustomWeather, © 2015

Note: Actual official high and low records may vary slightly from our data, if they occured in-between our weather recording intervals... More about our weather records

Advertising

Eindhoven weather history for previous 24 hours

 ConditionsComfort  
Time TempWeatherWind HumidityBarometerVisibility
3:55 AM
Fri, Jul 31
43 °FQuite cool.2 mph100%30.12 "HgN/A
3:25 AM45 °FQuite cool.2 mph93%30.12 "HgN/A
2:59 AM45 °FQuite cool.2 mph100%30.12 "HgN/A
2:55 AM45 °FFog.2 mph100%30.12 "Hg4 mi
2:25 AM46 °FCool.2 mph93%30.12 "HgN/A
1:55 AM46 °FCool.2 mph100%30.12 "HgN/A
1:25 AM46 °FCool.2 mph100%30.12 "HgN/A
12:55 AM46 °FPassing clouds.1 mph100%30.12 "HgN/A
12:25 AM48 °FClear.2 mph94%30.12 "HgN/A
11:56 PM
Thu, Jul 30
50 °FCool.3 mph94%30.12 "HgN/A
11:25 PM52 °FPassing clouds.5 mph88%30.09 "HgN/A
10:55 PM52 °FCool.3 mph88%30.09 "HgN/A
10:25 PM54 °FCool.5 mph82%30.09 "HgN/A
9:55 PM55 °FCool.5 mph77%30.09 "HgN/A
9:25 PM57 °FPartly sunny.6 mph72%30.07 "HgN/A
8:55 PM59 °FMore clouds than sun.3 mph77%30.07 "HgN/A
8:25 PM59 °FMore clouds than sun.5 mph82%30.07 "HgN/A
7:55 PM59 °FBroken clouds.6 mph82%30.04 "HgN/A
7:25 PM61 °FMostly cloudy.8 mph77%30.04 "HgN/A
6:59 PM61 °FBroken clouds.7 mph72%30.04 "HgN/A
6:25 PM61 °FOvercast.5 mph77%30.04 "HgN/A
5:55 PM57 °FCloudy.7 mph88%30.04 "HgN/A
5:25 PM57 °FLight rain. More clouds than sun.7 mph88%30.04 "HgN/A
4:55 PM57 °FDrizzle. More clouds than sun.6 mph88%30.04 "HgN/A
4:25 PM55 °FRain showers. Broken clouds.12 mph88%30.01 "Hg5 mi
3:55 PM63 °FScattered clouds.9 mph64%30.01 "HgN/A
3:25 PM64 °FBroken clouds.8 mph64%30.01 "HgN/A
2:59 PM63 °FBroken clouds.9 mph68%30.01 "HgN/A
1:55 PM59 °FMostly cloudy.7 mph77%30.01 "HgN/A
1:25 PM59 °FDrizzle. Mostly cloudy.8 mph82%30.01 "HgN/A
12:55 PM55 °FDrizzle. Mostly cloudy.5 mph94%30.01 "HgN/A
12:25 PM54 °FSprinkles. Broken clouds.7 mph94%30.01 "Hg4 mi
12:04 PM54 °FLots of rain. Broken clouds.13 mph94%29.98 "Hg2 mi
11:55 AM55 °FRain. Partly sunny.10 mph88%29.98 "HgN/A
11:25 AM64 °FBroken clouds.10 mph68%29.98 "HgN/A
10:55 AM61 °FPartly sunny.8 mph72%29.98 "HgN/A
10:25 AM59 °FMostly cloudy.8 mph77%29.98 "HgN/A
9:55 AM59 °FOvercast.8 mph82%29.98 "HgN/A
9:25 AM57 °FOvercast.8 mph82%29.95 "HgN/A
8:55 AM55 °FMore clouds than sun.8 mph94%29.95 "HgN/A
8:25 AM55 °FOvercast.7 mph88%29.95 "HgN/A
7:55 AM55 °FMostly cloudy.6 mph88%29.95 "HgN/A
7:25 AM54 °FOvercast.2 mph88%29.95 "HgN/A
6:55 AM52 °FFog.1 mph94%29.92 "Hg6 mi
6:25 AM48 °FOvercast.2 mph100%29.92 "HgN/A
5:55 AM48 °FPassing clouds.6 mph100%29.92 "HgN/A
5:25 AM50 °FPassing clouds.5 mph94%29.92 "HgN/A
Weather by CustomWeather, © 2015

See weather overviewHow to use our weather pages